Weather reports worldwide

Advertisment
Doberlug/Kirchhain, Germany (10490): temperature & dewpoint: 19.03.2019 18:00:00 - 25.03.2019 18:00:00 (CET)Doberlug/Kirchhain, Germany (10490): temperature 5cm & temperature -5cm: 19.03.2019 18:00:00 - 25.03.2019 18:00:00 (CET)Doberlug/Kirchhain, Germany (10490): temperature -20cm & temperature -100cm: 19.03.2019 18:00:00 - 25.03.2019 18:00:00 (CET)Doberlug/Kirchhain, Germany (10490): wind speed & gusts: 19.03.2019 18:00:00 - 25.03.2019 18:00:00 (CET)Doberlug/Kirchhain, Germany (10490): wind direction: 19.03.2019 18:00:00 - 25.03.2019 18:00:00 (CET)Doberlug/Kirchhain, Germany (10490): reduced air pressure: 19.03.2019 18:00:00 - 25.03.2019 18:00:00 (CET)Doberlug/Kirchhain, Germany (10490): visibility: 19.03.2019 18:00:00 - 25.03.2019 18:00:00 (CET)Doberlug/Kirchhain, Germany (10490): sunshine duration: 19.03.2019 18:00:00 - 25.03.2019 18:00:00 (CET)Doberlug/Kirchhain, Germany (10490): precipitation: 19.03.2019 18:00:00 - 25.03.2019 18:00:00 (CET)
Date & Time tt [°C] td [°C] tt 5cm [°C] tt -5cm [°C] tt -20cm [°C] tt -100cm [°C] ff [km/h] ff [kn] fx [km/h] fx [kn] dd ppp [hPa] vv [km] sd [min] rr [mm]
25.03.2019 18:00:00 - - - - - - - - - - - - - - -
25.03.2019 17:00:00 5,2 1,9 5,0 7,0 7,6 7,3 17 9 24 13 NW 1016,7 64 0 0,0
25.03.2019 16:00:00 4,6 2,2 4,4 7,4 7,7 7,3 11 6 32 17 W 1015,8 45 0 0,2
25.03.2019 15:00:00 6,2 1,5 6,3 9,0 7,5 7,4 24 13 44 24 NW 1015,0 53 8 0,0
25.03.2019 14:00:00 8,6 1,4 11,1 10,2 6,9 7,4 24 13 36 19 W 1014,2 33 46 0,3
25.03.2019 13:00:00 5,6 1,3 4,7 8,3 6,5 7,4 27 15 38 20 NW 1014,8 32 17 0,0
25.03.2019 12:00:00 5,9 1,2 6,4 7,2 6,2 7,4 26 14 42 23 WNW 1014,6 44 14 0,0
25.03.2019 11:00:00 5,0 2,4 4,8 6,2 6,0 7,4 24 13 34 19 W 1014,4 17 0 0,1
25.03.2019 10:00:00 4,5 2,7 5,2 5,0 5,9 7,3 20 11 40 21 W 1014,2 14 0 0,1
25.03.2019 09:00:00 3,0 1,4 2,7 4,2 5,9 7,3 16 9 40 22 WSW 1013,5 8 0 1,3
25.03.2019 08:00:00 4,2 -0,2 3,4 4,2 6,0 7,3 29 15 41 22 WSW 1013,6 17 21 0,0
25.03.2019 07:00:00 2,1 -1,0 1,4 3,4 6,2 7,3 9 5 18 10 S 1014,1 21 0 0,0
25.03.2019 06:00:00 2,3 -1,5 0,0 3,6 6,5 7,3 9 5 20 11 SW 1015,2 24 0 0,0
25.03.2019 05:00:00 2,7 -1,5 1,7 3,7 6,7 7,3 10 6 17 9 SW 1015,8 25 0 0,0
25.03.2019 04:00:00 1,8 -1,2 -0,3 3,8 7,1 7,3 8 4 17 9 SSW 1016,4 18 0 0,0
25.03.2019 03:00:00 2,7 -1,4 -0,4 4,2 7,5 7,3 9 5 13 7 WSW 1017,6 31 0 0,0
25.03.2019 02:00:00 1,6 -0,6 -1,1 4,5 8,0 7,2 8 4 11 6 SW 1018,5 21 0 0,0
25.03.2019 01:00:00 0,9 -1,1 -1,1 5,1 8,5 7,2 5 3 7 4 S 1019,1 30 0 0,0
25.03.2019 00:00:00 2,1 -0,7 -0,9 5,9 9,0 7,2 4 2 12 7 SW 1020,0 33 0 0,0
24.03.2019 23:00:00 4,6 -0,1 1,3 6,8 9,5 7,2 10 5 15 8 W 1020,2 41 0 0,0
24.03.2019 22:00:00 4,7 0,7 1,2 7,7 10,0 7,2 10 5 12 7 W 1020,7 30 0 0,0
24.03.2019 21:00:00 6,1 1,0 1,3 8,7 10,4 7,2 7 4 11 6 W 1021,0 35 0 0,0
24.03.2019 20:00:00 7,3 2,0 4,5 10,0 10,8 7,1 8 4 19 10 WNW 1021,4 45 0 0,0
24.03.2019 19:00:00 9,3 4,0 8,7 11,1 11,1 7,1 14 8 22 12 W 1021,3 14 0 0,0
24.03.2019 18:00:00 10,4 2,7 9,8 12,5 11,1 7,1 13 7 22 12 W 1021,5 29 31 0,0
24.03.2019 17:00:00 11,5 1,1 12,3 13,6 11,0 7,1 13 7 21 11 W 1021,7 43 58 0,0
24.03.2019 16:00:00 11,8 1,3 14,4 13,4 10,9 7,1 9 5 16 9 WSW 1022,3 34 29 0,0
24.03.2019 15:00:00 10,5 1,6 11,0 12,8 10,8 7,1 6 3 13 7 W 1023,0 36 0 0,0
24.03.2019 14:00:00 10,6 1,9 11,4 14,1 10,5 7,1 11 6 16 9 NNE 1023,6 35 7 0,0
24.03.2019 13:00:00 10,6 1,1 11,5 14,4 10,0 7,1 8 4 16 9 NW 1024,6 33 24 0,0
24.03.2019 12:00:00 10,7 1,2 14,2 14,1 9,2 7,1 7 4 14 8 WSW 1025,1 29 54 0,0
24.03.2019 11:00:00 10,3 1,3 14,9 12,0 8,6 7,0 5 3 11 6 NNE 1026,3 25 46 0,0
24.03.2019 10:00:00 8,1 3,5 9,5 9,5 8,4 7,0 5 3 11 6 NNE 1027,1 18 0 0,0
24.03.2019 09:00:00 7,3 3,3 8,6 8,6 8,2 7,0 6 3 12 6 NE 1027,5 16 4 0,0
24.03.2019 08:00:00 6,6 3,0 6,9 7,6 8,3 7,0 8 5 13 7 ENE 1027,7 15 15 0,0
24.03.2019 07:00:00 5,6 3,6 5,0 7,1 8,5 6,9 8 5 11 6 N 1028,0 11 0 0,0
24.03.2019 06:00:00 6,0 4,7 4,4 7,7 8,7 6,9 7 4 8 4 NW 1028,1 4,2 0 0,0
24.03.2019 05:00:00 7,5 5,3 6,3 8,1 8,9 6,9 4 2 8 4 ENE 1028,1 7 0 0,0
24.03.2019 04:00:00 7,6 5,7 7,1 8,3 9,0 6,9 5 3 9 5 NE 1028,3 5 0 0,0
24.03.2019 03:00:00 7,5 6,0 7,1 8,4 9,2 6,9 5 3 10 5 N 1028,7 4,0 0 0,0
24.03.2019 02:00:00 7,6 6,0 7,3 8,6 9,3 6,8 6 4 8 4 NW 1028,8 4,3 0 0,0
24.03.2019 01:00:00 7,7 5,8 7,3 8,6 9,5 6,8 4 2 6 4 WNW 1029,0 4,8 0 0,0
24.03.2019 00:00:00 7,6 5,6 7,0 8,6 9,8 6,8 4 2 8 4 W 1029,1 5 0 0,0
23.03.2019 23:00:00 7,6 5,4 6,5 8,6 10,2 6,8 6 3 9 5 WSW 1029,3 6 0 0,0
23.03.2019 22:00:00 6,0 4,3 3,9 8,9 10,7 6,7 3 2 13 7 WSW 1029,4 4,2 0 0,0
23.03.2019 21:00:00 7,0 4,8 5,3 9,8 11,2 6,7 12 6 16 9 NW 1029,0 5 0 0,0
23.03.2019 20:00:00 7,6 5,0 5,7 10,9 11,7 6,7 10 5 21 11 NW 1028,6 6 0 0,0
23.03.2019 19:00:00 9,6 5,5 8,4 12,3 12,1 6,7 16 9 29 15 NNW 1027,9 8 0 0,0
23.03.2019 18:00:00 11,9 5,0 11,1 14,1 12,4 6,7 23 12 40 22 NNW 1027,0 10 18 0,0
23.03.2019 17:00:00 14,8 6,7 14,8 16,2 12,3 6,7 31 17 41 22 NNW 1026,2 7 60 0,0
23.03.2019 16:00:00 18,5 8,1 19,1 17,7 11,9 6,7 23 12 31 17 WNW 1025,0 13 60 0,0
23.03.2019 15:00:00 19,5 4,9 21,0 18,0 11,2 6,7 23 12 28 15 NW 1025,0 18 60 0,0
23.03.2019 14:00:00 19,3 5,4 22,2 17,6 10,4 6,7 15 8 29 16 W 1025,1 22 60 0,0
23.03.2019 13:00:00 18,8 5,7 21,7 16,9 9,3 6,7 9 5 22 12 NW 1025,4 24 60 0,0
23.03.2019 12:00:00 17,4 6,3 19,8 14,9 8,3 6,7 14 8 23 13 NW 1025,8 15 60 0,0
23.03.2019 11:00:00 16,9 6,5 19,2 12,8 7,4 6,7 13 7 19 10 WNW 1025,9 20 60 0,0
23.03.2019 10:00:00 14,3 7,2 16,6 10,0 6,7 6,6 9 5 18 10 SSW 1026,0 20 60 0,0
23.03.2019 09:00:00 11,0 6,6 10,5 7,3 6,4 6,6 11 6 17 9 S 1026,1 10 60 0,0
23.03.2019 08:00:00 7,0 5,3 7,1 4,9 6,4 6,6 7 4 11 6 S 1026,4 3,9 60 0,0
23.03.2019 07:00:00 1,9 1,2 0,2 4,1 6,7 6,6 6 4 8 4 S 1026,7 4,7 8 0,0
23.03.2019 06:00:00 1,6 0,9 -0,1 4,4 7,0 6,5 2 1 5 3 SSW 1027,0 1,1 0 0,0
23.03.2019 05:00:00 1,8 0,9 -0,3 4,8 7,3 6,5 5 3 8 4 S 1027,1 2,2 0 0,0
23.03.2019 04:00:00 2,4 1,7 0,2 5,3 7,6 6,5 4 2 9 5 S 1027,2 3,5 0 0,0
23.03.2019 03:00:00 3,1 2,6 1,9 5,7 8,0 6,5 7 4 8 5 S 1027,4 0,1 0 0,0
23.03.2019 02:00:00 3,4 2,9 0,7 6,2 8,4 6,5 0 0 4 2 N 1027,8 0,2 0 0,0
23.03.2019 01:00:00 4,0 3,5 1,7 6,7 8,8 6,4 2 1 5 3 E 1028,4 0,3 0 0,0
23.03.2019 00:00:00 5,1 4,4 1,6 7,3 9,3 6,4 3 2 6 4 ENE 1028,7 0,2 0 0,0
22.03.2019 23:00:00 5,5 4,5 2,5 8,1 9,7 6,4 3 2 9 5 E 1029,3 2,5 0 0,0
22.03.2019 22:00:00 7,1 5,8 4,1 8,9 10,2 6,4 3 2 11 6 E 1029,6 3,2 0 0,0
22.03.2019 21:00:00 8,8 7,1 5,5 9,9 10,7 6,4 4 2 13 7 E 1029,8 4,8 0 0,0
22.03.2019 20:00:00 9,4 7,3 6,4 11,0 11,1 6,4 7 4 12 6 ENE 1030,1 4,9 0 0,0
22.03.2019 19:00:00 11,5 8,0 9,1 12,5 11,4 6,4 7 4 16 9 NE 1030,1 6 0 0,0
22.03.2019 18:00:00 13,2 8,5 12,2 14,3 11,5 6,4 13 7 18 10 NE 1029,9 7 55 0,0
22.03.2019 17:00:00 14,6 8,5 15,7 16,0 11,3 6,4 10 6 20 11 NE 1030,0 7 60 0,0
22.03.2019 16:00:00 15,8 8,6 17,7 16,9 10,7 6,3 11 6 18 10 NNE 1030,5 8 60 0,0
22.03.2019 15:00:00 15,0 8,7 18,6 17,1 10,0 6,3 8 4 13 7 NNE 1031,1 7 60 0,0
22.03.2019 14:00:00 14,1 8,2 17,7 16,1 9,1 6,3 9 5 16 9 N 1031,9 6 60 0,0
22.03.2019 13:00:00 12,9 7,9 17,1 14,7 8,1 6,3 8 4 15 8 N 1032,8 6 59 0,0
22.03.2019 12:00:00 11,9 7,8 15,5 11,9 7,4 6,3 5 3 12 7 ENE 1033,6 5 4 0,0
22.03.2019 11:00:00 10,5 7,5 11,9 10,3 6,7 6,3 5 3 15 8 E 1034,2 6 0 0,0
22.03.2019 10:00:00 8,5 7,4 9,5 8,5 6,1 6,3 6 3 11 6 NE 1034,6 3,5 0 0,0
22.03.2019 09:00:00 5,6 5,1 6,6 6,5 5,9 6,2 3 2 8 5 NE 1034,6 0,1 0 0,0
22.03.2019 08:00:00 3,5 3,1 4,0 4,8 5,8 6,2 3 2 6 3 S 1034,2 0,1 0 0,0
22.03.2019 07:00:00 2,1 1,9 2,3 3,8 6,0 6,2 4 2 5 3 N 1034,2 0,1 0 0,0
22.03.2019 06:00:00 1,3 0,5 0,0 3,6 6,3 6,2 0 0 7 4 N 1033,8 2,1 0 0,0
22.03.2019 05:00:00 2,4 1,7 0,2 4,0 6,6 6,1 0 0 9 5 N 1033,3 3,0 0 0,0
22.03.2019 04:00:00 3,0 2,3 1,0 4,4 6,9 6,1 6 3 10 5 S 1033,2 2,7 0 0,0
22.03.2019 03:00:00 3,0 2,3 1,0 4,9 7,3 6,1 5 3 6 4 S 1033,6 2,7 0 0,0
22.03.2019 02:00:00 3,0 2,5 1,4 5,3 7,7 6,1 0 0 5 3 N 1033,6 0,3 0 0,0
22.03.2019 01:00:00 3,7 2,9 1,5 5,8 8,1 6,0 2 1 4 2 E 1033,6 2,7 0 0,0
22.03.2019 00:00:00 4,5 3,8 1,9 6,4 8,6 6,0 0 0 5 3 N 1033,7 3,8 0 0,0
21.03.2019 23:00:00 5,2 4,0 2,3 7,1 9,0 6,0 0 0 3 2 N 1033,6 4,2 0 0,0
21.03.2019 22:00:00 6,0 4,5 3,2 8,0 9,5 6,0 2 1 4 2 NW 1033,4 5 0 0,0
21.03.2019 21:00:00 7,6 5,5 4,5 9,0 10,1 6,0 3 2 7 4 SSW 1033,3 8 0 0,0
21.03.2019 20:00:00 8,9 5,8 6,0 10,1 10,6 5,9 3 2 5 3 S 1033,1 11 0 0,0
21.03.2019 19:00:00 10,7 6,7 6,2 11,6 10,9 5,9 3 1 9 5 W 1032,8 11 0 0,0
21.03.2019 18:00:00 14,4 6,6 12,1 13,5 11,1 5,9 7 4 18 10 W 1032,3 13 52 0,0
21.03.2019 17:00:00 15,4 6,1 15,5 15,1 10,9 5,9 11 6 18 10 W 1032,3 17 60 0,0
21.03.2019 16:00:00 15,8 6,4 17,5 15,9 10,4 5,9 10 6 22 12 WSW 1032,5 16 60 0,0
21.03.2019 15:00:00 15,3 6,2 17,7 15,9 9,8 5,9 12 6 22 12 W 1032,9 15 60 0,0
21.03.2019 14:00:00 14,9 5,7 17,4 15,2 9,1 5,9 14 7 22 12 W 1033,6 17 51 0,0
21.03.2019 13:00:00 13,8 6,1 14,6 13,8 8,4 5,9 13 7 22 12 WNW 1034,3 15 20 0,0
21.03.2019 12:00:00 13,2 5,4 15,4 13,4 7,6 5,9 12 7 23 12 W 1034,9 18 46 0,0
21.03.2019 11:00:00 11,9 5,1 12,5 11,7 6,9 5,9 16 8 21 11 WNW 1035,3 16 38 0,0
21.03.2019 10:00:00 10,7 4,5 11,6 9,4 6,4 5,9 12 7 19 10 WNW 1035,7 11 23 0,0
21.03.2019 09:00:00 8,8 2,8 9,2 7,2 6,2 5,8 8 4 13 7 SW 1035,4 16 0 0,0
21.03.2019 08:00:00 7,4 1,9 7,4 6,2 6,1 5,8 9 5 15 8 SSW 1035,2 17 0 0,0
21.03.2019 07:00:00 7,1 2,0 6,7 5,9 6,2 5,8 6 3 11 6 S 1034,8 15 0 0,0
21.03.2019 06:00:00 7,1 2,0 6,4 5,9 6,2 5,8 6 3 12 6 SSW 1034,4 13 0 0,0
21.03.2019 05:00:00 7,1 2,1 6,4 6,0 6,3 5,8 6 3 11 6 SSW 1034,2 13 0 0,0
21.03.2019 04:00:00 7,3 1,9 6,6 6,1 6,4 5,8 5 3 13 7 S 1034,3 15 0 0,0
21.03.2019 03:00:00 7,8 1,8 6,9 6,2 6,5 5,8 8 5 11 6 SW 1034,3 15 0 0,0
21.03.2019 02:00:00 7,8 1,6 7,0 6,2 6,6 5,8 8 5 15 8 SSW 1034,6 16 0 0,0
21.03.2019 01:00:00 7,8 1,6 7,0 6,4 6,7 5,8 6 4 11 6 SSW 1034,8 19 0 0,0
21.03.2019 00:00:00 7,8 1,8 6,8 6,5 6,8 5,8 7 4 11 6 S 1034,9 18 0 0,0
20.03.2019 23:00:00 7,9 1,1 7,1 6,6 6,9 5,8 8 4 13 7 S 1034,4 20 0 0,0
20.03.2019 22:00:00 7,5 1,1 6,9 6,7 7,1 5,8 11 6 16 9 S 1034,0 21 0 0,0
20.03.2019 21:00:00 8,0 1,4 7,1 6,9 7,4 5,8 8 5 15 8 S 1034,0 18 0 0,0
20.03.2019 20:00:00 7,7 0,9 6,4 7,1 7,8 5,8 10 6 13 7 S 1034,0 15 0 0,0
20.03.2019 19:00:00 8,9 0,4 4,6 8,1 8,1 5,8 6 4 16 9 SSW 1033,5 28 0 0,0
20.03.2019 18:00:00 10,6 0,1 8,5 9,8 8,3 5,8 10 5 23 13 WSW 1033,0 37 53 0,0
20.03.2019 17:00:00 11,6 -0,4 11,8 11,4 8,2 5,8 12 7 24 13 WSW 1032,8 44 60 0,0
20.03.2019 16:00:00 11,9 -0,5 13,3 12,3 7,8 5,8 14 7 31 17 WSW 1033,0 44 60 0,0
20.03.2019 15:00:00 11,5 -2,3 13,4 12,7 7,1 5,8 14 8 24 13 W 1033,3 48 60 0,0
20.03.2019 14:00:00 11,3 -4,5 14,2 12,6 6,3 5,8 13 7 25 14 W 1033,5 33 60 0,0
20.03.2019 13:00:00 10,6 -2,1 13,3 11,4 5,3 5,9 14 8 32 18 W 1034,1 30 60 0,0
20.03.2019 12:00:00 9,8 -1,3 12,4 9,8 4,3 5,9 14 8 24 13 W 1034,6 37 60 0,0
20.03.2019 11:00:00 9,0 -0,3 11,1 7,4 3,3 5,9 11 6 23 12 SW 1034,7 33 60 0,0
20.03.2019 10:00:00 7,2 -0,5 8,6 3,7 2,7 5,9 11 6 18 10 SW 1034,5 33 60 0,0
20.03.2019 09:00:00 4,4 -0,7 4,5 0,6 2,7 5,9 9 5 14 7 SSW 1034,2 24 60 0,0
20.03.2019 08:00:00 1,5 -1,0 -0,2 0,6 2,8 5,9 4 2 9 5 S 1034,1 15 60 0,0
20.03.2019 07:00:00 -1,1 -2,1 -2,5 0,6 2,9 5,9 6 4 9 5 S 1033,5 9 3 0,0
20.03.2019 06:00:00 -1,3 -2,4 -3,8 0,7 3,0 5,9 4 2 10 5 WSW 1033,1 10 0 0,0
20.03.2019 05:00:00 -1,0 -2,0 -2,0 0,7 3,2 5,9 6 4 10 5 S 1032,7 10 0 0,0
20.03.2019 04:00:00 -1,9 -2,8 -4,8 0,8 3,4 5,9 5 3 8 4 S 1032,5 11 0 0,0
20.03.2019 03:00:00 -1,4 -2,4 -4,0 1,0 3,6 5,9 3 2 8 4 SW 1032,2 13 0 0,0
20.03.2019 02:00:00 -1,2 -2,2 -3,0 1,2 3,9 5,9 3 2 7 4 SSW 1032,3 15 0 0,0
20.03.2019 01:00:00 -0,6 -1,8 -3,6 1,4 4,2 5,9 1 1 6 3 W 1032,1 18 0 0,0
20.03.2019 00:00:00 -0,1 -1,6 -3,0 1,7 4,6 5,9 4 2 6 3 S 1031,6 20 0 0,0
19.03.2019 23:00:00 1,2 -0,8 -1,8 2,4 4,9 5,9 4 2 10 5 SSE 1031,3 31 0 0,0
19.03.2019 22:00:00 3,9 -0,5 1,1 3,2 5,2 5,9 9 5 13 7 W 1030,5 43 0 0,0
19.03.2019 21:00:00 4,6 0,0 1,8 4,1 5,5 5,9 9 5 12 7 W 1029,9 48 0 0,0
19.03.2019 20:00:00 5,0 0,8 3,7 4,4 5,7 5,9 8 4 13 7 SW 1029,4 38 0 0,0
19.03.2019 19:00:00 5,0 0,8 3,2 4,7 6,0 5,9 9 5 16 9 WSW 1028,7 45 0 0,0
19.03.2019 18:00:00 6,0 0,4 4,4 6,1 6,1 5,9 13 7 24 13 WSW 1028,0 63 20 0,0

tt = temperature
td = dewpoint
tt 5cm = temperature 5cm
tt -5cm = temperature -5cm
tt -20cm = temperature -20cm
tt -100cm = temperature -100cm
ff = wind speed
fx = gusts
dd = wind direction
ppp = reduced air pressure
vv = visibility
sd = sunshine duration
rr = precipitation

Next stations